QPF
0.02 0.02 0.03 0.04 0.04 0.04 0.06 0.09 0.15 0.15 0.15 0.12 0.07 0.08 0.10 0.08 0.05 0.05 0.05 0.09 0.10 0.07 0.06 0.05 0.05 0.05 0.05 0.05 0.04 0.04 0.04 0.05 0.06 0.06 0.07 0.07 0.10 0.09 0.05 0.03 0.02 0.02 0.01
0.03 0.02 0.03 0.05 0.06 0.05 0.06 0.07 0.13 0.15 0.15 0.14 0.10 0.07 0.10 0.10 0.07 0.07 0.07 0.08 0.10 0.10 0.06 0.05 0.04 0.04 0.05 0.05 0.05 0.05 0.05 0.05 0.05 0.06 0.09 0.10 0.10 0.11 0.07 0.04 0.03 0.03 0.02
0.03 0.04 0.05 0.05 0.06 0.07 0.07 0.07 0.12 0.14 0.15 0.14 0.14 0.11 0.10 0.11 0.08 0.08 0.09 0.08 0.09 0.10 0.08 0.06 0.04 0.03 0.03 0.03 0.04 0.04 0.04 0.05 0.05 0.04 0.05 0.06 0.07 0.09 0.10 0.07 0.05 0.04 0.03
0.04 0.06 0.07 0.06 0.08 0.08 0.10 0.11 0.12 0.13 0.16 0.15 0.14 0.12 0.10 0.10 0.08 0.07 0.09 0.08 0.09 0.10 0.08 0.06 0.06 0.05 0.04 0.03 0.03 0.03 0.04 0.04 0.05 0.04 0.03 0.03 0.03 0.05 0.08 0.08 0.07 0.05 0.04
0.05 0.06 0.05 0.07 0.10 0.10 0.12 0.13 0.13 0.13 0.16 0.19 0.16 0.14 0.10 0.10 0.10 0.08 0.08 0.09 0.09 0.10 0.09 0.06 0.05 0.05 0.05 0.05 0.04 0.03 0.04 0.04 0.04 0.04 0.03 0.03 0.02 0.02 0.04 0.07 0.07 0.06 0.04
0.06 0.05 0.05 0.07 0.10 0.11 0.12 0.15 0.14 0.13 0.14 0.19 0.22 0.19 0.14 0.11 0.12 0.10 0.08 0.09 0.09 0.09 0.09 0.07 0.04 0.03 0.03 0.04 0.05 0.05 0.05 0.05 0.05 0.04 0.04 0.03 0.03 0.02 0.02 0.04 0.06 0.06 0.05
0.04 0.04 0.06 0.07 0.10 0.10 0.11 0.14 0.14 0.12 0.14 0.14 0.18 0.21 0.18 0.12 0.11 0.11 0.09 0.08 0.07 0.07 0.07 0.06 0.04 0.03 0.03 0.03 0.04 0.05 0.05 0.05 0.04 0.04 0.04 0.03 0.03 0.02 0.02 0.02 0.03 0.05 0.04
0.03 0.04 0.06 0.07 0.08 0.08 0.09 0.11 0.12 0.12 0.11 0.12 0.11 0.16 0.19 0.14 0.11 0.10 0.09 0.09 0.08 0.06 0.05 0.05 0.06 0.05 0.04 0.03 0.04 0.05 0.04 0.04 0.04 0.04 0.04 0.03 0.02 0.02 0.01 0.02 0.02 0.02 0.03
0.05 0.05 0.05 0.06 0.07 0.08 0.08 0.09 0.10 0.12 0.12 0.11 0.10 0.10 0.14 0.15 0.12 0.11 0.10 0.10 0.10 0.09 0.08 0.06 0.05 0.07 0.06 0.05 0.04 0.04 0.05 0.05 0.04 0.04 0.04 0.03 0.02 0.02 0.02 0.02 0.02 0.02 0.02
0.06 0.05 0.05 0.06 0.06 0.07 0.08 0.08 0.08 0.09 0.10 0.10 0.10 0.09 0.10 0.12 0.12 0.11 0.10 0.09 0.09 0.09 0.09 0.09 0.07 0.07 0.08 0.07 0.06 0.05 0.04 0.04 0.05 0.05 0.04 0.03 0.03 0.02 0.02 0.02 0.02 0.02 0.02
0.07 0.07 0.05 0.05 0.06 0.06 0.08 0.07 0.06 0.06 0.06 0.06 0.07 0.08 0.10 0.13 0.13 0.12 0.10 0.09 0.08 0.09 0.09 0.08 0.07 0.07 0.09 0.11 0.10 0.08 0.05 0.04 0.04 0.04 0.04 0.03 0.03 0.03 0.02 0.02 0.02 0.03 0.03
0.06 0.08 0.06 0.05 0.05 0.05 0.08 0.08 0.06 0.05 0.05 0.04 0.05 0.05 0.06 0.08 0.11 0.13 0.14 0.12 0.09 0.08 0.08 0.09 0.09 0.08 0.08 0.11 0.12 0.12 0.10 0.07 0.05 0.04 0.04 0.04 0.04 0.03 0.03 0.02 0.02 0.02 0.03
0.03 0.04 0.05 0.05 0.05 0.06 0.08 0.08 0.05 0.05 0.05 0.04 0.04 0.05 0.05 0.05 0.05 0.06 0.07 0.10 0.11 0.10 0.08 0.08 0.08 0.09 0.09 0.08 0.08 0.09 0.10 0.09 0.08 0.07 0.06 0.05 0.05 0.05 0.04 0.03 0.03 0.02 0.03
0.02 0.02 0.03 0.06 0.07 0.07 0.08 0.07 0.05 0.04 0.04 0.04 0.05 0.05 0.05 0.04 0.03 0.04 0.04 0.04 0.05 0.07 0.07 0.06 0.06 0.06 0.07 0.07 0.07 0.07 0.08 0.07 0.07 0.07 0.06 0.06 0.05 0.04 0.04 0.03 0.03 0.02 0.03
0.02 0.02 0.02 0.04 0.06 0.06 0.05 0.05 0.04 0.03 0.03 0.04 0.04 0.04 0.04 0.03 0.02 0.02 0.03 0.04 0.04 0.04 0.04 0.04 0.05 0.05 0.06 0.06 0.05 0.05 0.06 0.06 0.05 0.05 0.05 0.05 0.05 0.04 0.03 0.03 0.03 0.02 0.03
0.02 0.02 0.02 0.02 0.03 0.05 0.05 0.04 0.04 0.03 0.02 0.02 0.02 0.03 0.03 0.03 0.02 0.01 0.02 0.03 0.05 0.05 0.04 0.03 0.03 0.04 0.05 0.06 0.05 0.05 0.05 0.05 0.05 0.05 0.04 0.04 0.04 0.04 0.04 0.04 0.03 0.02 0.03
0.02 0.02 0.02 0.03 0.04 0.04 0.04 0.03 0.03 0.02 0.02 0.01 0.01 0.02 0.03 0.02 0.02 0.01 0.01 0.02 0.03 0.05 0.05 0.04 0.04 0.03 0.03 0.05 0.04 0.04 0.04 0.05 0.04 0.04 0.04 0.03 0.03 0.04 0.04 0.04 0.03 0.03 0.02
0.03 0.02 0.02 0.02 0.03 0.03 0.02 0.02 0.02 0.01 0.01 0.01 0.01 0.02 0.03 0.02 0.01 0.01 0.01 0.02 0.02 0.03 0.05 0.05 0.04 0.03 0.03 0.04 0.04 0.04 0.04 0.04 0.03 0.03 0.04 0.03 0.03 0.03 0.04 0.04 0.03 0.03 0.02
0.03 0.02 0.02 0.02 0.02 0.02 0.02 0.01 0.01 0.01 0.01 0.01 0.01 0.01 0.03 0.03 0.02 0.01 0.01 0.02 0.02 0.03 0.05 0.07 0.06 0.05 0.05 0.05 0.04 0.04 0.03 0.03 0.03 0.02 0.03 0.03 0.03 0.03 0.02 0.03 0.03 0.03 0.03
0.03 0.02 0.02 0.02 0.02 0.02 0.01 0.01 0.01 0.01 0.01 0.01 0.01 0.01 0.02 0.03 0.03 0.02 0.01 0.01 0.02 0.03 0.04 0.05 0.06 0.06 0.05 0.06 0.06 0.05 0.04 0.03 0.03 0.03 0.03 0.03 0.03 0.03 0.02 0.02 0.03 0.03 0.03
0.03 0.03 0.02 0.02 0.02 0.02 0.02 0.02 0.01 0.01 0.02 0.02 0.02 0.01 0.01 0.03 0.03 0.03 0.02 0.01 0.02 0.02 0.03 0.04 0.05 0.06 0.06 0.06 0.06 0.06 0.05 0.04 0.03 0.03 0.03 0.02 0.03 0.03 0.02 0.02 0.03 0.02 0.02
0.03 0.03 0.02 0.02 0.02 0.01 0.02 0.02 0.01 0.01 0.01 0.02 0.02 0.02 0.02 0.02 0.03 0.03 0.03 0.03 0.02 0.03 0.03 0.03 0.04 0.04 0.05 0.05 0.06 0.06 0.06 0.06 0.04 0.03 0.02 0.02 0.03 0.03 0.03 0.03 0.02 0.03 0.03
0.03 0.03 0.03 0.02 0.01 0.01 0.01 0.01 0.01 0.01 0.02 0.02 0.02 0.02 0.02 0.02 0.03 0.03 0.03 0.03 0.03 0.04 0.04 0.03 0.03 0.03 0.04 0.04 0.05 0.05 0.05 0.05 0.04 0.03 0.03 0.02 0.03 0.03 0.03 0.04 0.03 0.03 0.02
0.05 0.05 0.04 0.02 0.02 0.02 0.01 0.01 0.01 0.01 0.01 0.02 0.02 0.02 0.02 0.02 0.03 0.03 0.04 0.04 0.04 0.05 0.05 0.03 0.03 0.03 0.03 0.03 0.03 0.04 0.03 0.04 0.03 0.03 0.03 0.03 0.03 0.03 0.03 0.03 0.03 0.03 0.02
0.06 0.07 0.04 0.03 0.02 0.02 0.01 0.01 0.01 0.02 0.02 0.01 0.01 0.02 0.02 0.03 0.03 0.03 0.03 0.04 0.04 0.06 0.06 0.05 0.05 0.04 0.04 0.03 0.04 0.05 0.04 0.03 0.03 0.03 0.03 0.03 0.02 0.02 0.02 0.02 0.02 0.02 0.03
0.07 0.06 0.04 0.03 0.03 0.03 0.02 0.02 0.02 0.02 0.02 0.02 0.02 0.02 0.02 0.02 0.03 0.03 0.03 0.04 0.05 0.05 0.06 0.06 0.06 0.05 0.04 0.04 0.05 0.04 0.04 0.03 0.03 0.03 0.03 0.03 0.02 0.02 0.02 0.02 0.02 0.02 0.02
MSLP
1027.20 1026.13 1025.07 1024.09 1023.25 1022.52 1021.87 1021.20 1020.42 1019.46 1018.30 1016.96 1015.53 1014.13 1012.89 1011.96 1011.42 1011.30 1011.60 1012.24 1013.13 1014.15 1015.20 1016.20 1017.13 1017.98 1018.76 1019.53 1020.31 1021.12 1021.95 1022.78 1023.58 1024.31 1024.94 1025.45 1025.86 1026.16 1026.41 1026.61 1026.79 1026.95 1027.11
1027.17 1026.00 1024.84 1023.79 1022.88 1022.13 1021.47 1020.81 1020.06 1019.13 1017.99 1016.65 1015.20 1013.75 1012.45 1011.43 1010.81 1010.63 1010.88 1011.50 1012.39 1013.44 1014.54 1015.61 1016.60 1017.49 1018.32 1019.11 1019.91 1020.72 1021.55 1022.40 1023.22 1023.99 1024.67 1025.24 1025.72 1026.10 1026.40 1026.67 1026.90 1027.12 1027.32
1027.17 1025.92 1024.68 1023.54 1022.58 1021.78 1021.09 1020.43 1019.68 1018.76 1017.63 1016.29 1014.81 1013.33 1011.97 1010.88 1010.19 1009.94 1010.14 1010.73 1011.62 1012.69 1013.83 1014.95 1015.98 1016.93 1017.79 1018.59 1019.39 1020.20 1021.03 1021.88 1022.72 1023.52 1024.25 1024.88 1025.43 1025.88 1026.25 1026.57 1026.86 1027.13 1027.38
1027.20 1025.89 1024.58 1023.38 1022.34 1021.48 1020.74 1020.04 1019.26 1018.33 1017.18 1015.83 1014.33 1012.81 1011.41 1010.27 1009.52 1009.22 1009.37 1009.93 1010.82 1011.90 1013.08 1014.24 1015.32 1016.31 1017.19 1018.02 1018.81 1019.62 1020.44 1021.29 1022.14 1022.97 1023.74 1024.43 1025.04 1025.55 1025.98 1026.35 1026.68 1026.99 1027.29
1027.25 1025.90 1024.55 1023.28 1022.17 1021.23 1020.41 1019.63 1018.79 1017.80 1016.61 1015.23 1013.72 1012.18 1010.75 1009.58 1008.79 1008.46 1008.59 1009.14 1010.02 1011.13 1012.33 1013.53 1014.66 1015.68 1016.60 1017.44 1018.24 1019.04 1019.86 1020.71 1021.57 1022.42 1023.22 1023.95 1024.60 1025.15 1025.62 1026.02 1026.38 1026.72 1027.04
1027.31 1025.95 1024.56 1023.24 1022.05 1021.00 1020.07 1019.17 1018.23 1017.15 1015.90 1014.48 1012.94 1011.39 1009.96 1008.79 1008.01 1007.67 1007.80 1008.36 1009.26 1010.39 1011.63 1012.87 1014.04 1015.10 1016.05 1016.91 1017.72 1018.52 1019.34 1020.18 1021.04 1021.90 1022.71 1023.47 1024.14 1024.71 1025.20 1025.61 1025.98 1026.33 1026.66
1027.38 1026.02 1024.61 1023.23 1021.95 1020.78 1019.70 1018.65 1017.57 1016.37 1015.04 1013.56 1012.01 1010.46 1009.06 1007.93 1007.19 1006.89 1007.05 1007.63 1008.56 1009.72 1010.99 1012.28 1013.49 1014.59 1015.57 1016.45 1017.27 1018.07 1018.88 1019.71 1020.56 1021.41 1022.23 1022.98 1023.66 1024.24 1024.73 1025.14 1025.51 1025.85 1026.19
1027.46 1026.11 1024.67 1023.24 1021.85 1020.54 1019.30 1018.07 1016.82 1015.49 1014.05 1012.52 1010.96 1009.44 1008.10 1007.03 1006.36 1006.12 1006.33 1006.96 1007.93 1009.12 1010.43 1011.75 1012.99 1014.13 1015.14 1016.04 1016.87 1017.66 1018.46 1019.27 1020.10 1020.93 1021.73 1022.48 1023.15 1023.72 1024.20 1024.61 1024.98 1025.32 1025.67
1027.57 1026.21 1024.75 1023.24 1021.75 1020.29 1018.87 1017.46 1016.03 1014.56 1013.02 1011.44 1009.88 1008.41 1007.14 1006.16 1005.57 1005.42 1005.69 1006.37 1007.36 1008.58 1009.91 1011.25 1012.52 1013.68 1014.71 1015.63 1016.47 1017.26 1018.04 1018.83 1019.63 1020.43 1021.21 1021.93 1022.58 1023.15 1023.63 1024.04 1024.41 1024.77 1025.13
1027.72 1026.34 1024.84 1023.27 1021.66 1020.06 1018.47 1016.88 1015.28 1013.67 1012.05 1010.43 1008.88 1007.47 1006.28 1005.40 1004.90 1004.82 1005.15 1005.85 1006.86 1008.07 1009.40 1010.74 1012.01 1013.18 1014.23 1015.16 1016.01 1016.80 1017.57 1018.34 1019.11 1019.88 1020.62 1021.32 1021.96 1022.53 1023.02 1023.45 1023.85 1024.23 1024.62
1027.94 1026.52 1024.98 1023.33 1021.63 1019.90 1018.15 1016.41 1014.68 1012.96 1011.26 1009.63 1008.10 1006.74 1005.63 1004.83 1004.41 1004.37 1004.71 1005.41 1006.39 1007.57 1008.85 1010.16 1011.42 1012.58 1013.63 1014.58 1015.44 1016.23 1017.00 1017.75 1018.50 1019.25 1019.97 1020.66 1021.30 1021.88 1022.40 1022.87 1023.30 1023.73 1024.17
1028.23 1026.78 1025.19 1023.49 1021.71 1019.88 1018.02 1016.17 1014.33 1012.53 1010.79 1009.15 1007.65 1006.35 1005.29 1004.54 1004.15 1004.11 1004.42 1005.06 1005.95 1007.04 1008.24 1009.48 1010.69 1011.84 1012.89 1013.85 1014.73 1015.55 1016.32 1017.08 1017.83 1018.57 1019.29 1019.98 1020.63 1021.23 1021.79 1022.31 1022.80 1023.29 1023.78
1028.61 1027.14 1025.52 1023.78 1021.96 1020.07 1018.15 1016.23 1014.33 1012.50 1010.75 1009.11 1007.64 1006.36 1005.33 1004.59 1004.17 1004.07 1004.29 1004.80 1005.56 1006.50 1007.58 1008.71 1009.85 1010.96 1012.00 1012.98 1013.89 1014.75 1015.57 1016.35 1017.12 1017.87 1018.60 1019.31 1019.98 1020.62 1021.23 1021.81 1022.36 1022.90 1023.44
1029.12 1027.63 1026.01 1024.27 1022.43 1020.53 1018.60 1016.66 1014.75 1012.91 1011.17 1009.55 1008.09 1006.82 1005.78 1005.00 1004.49 1004.28 1004.34 1004.67 1005.23 1005.99 1006.89 1007.89 1008.93 1009.99 1011.02 1012.02 1012.98 1013.89 1014.76 1015.60 1016.41 1017.19 1017.95 1018.69 1019.40 1020.08 1020.73 1021.35 1021.96 1022.54 1023.12
1029.75 1028.27 1026.67 1024.96 1023.16 1021.29 1019.39 1017.48 1015.60 1013.79 1012.06 1010.46 1009.01 1007.72 1006.63 1005.76 1005.13 1004.74 1004.60 1004.70 1005.02 1005.55 1006.25 1007.08 1008.01 1009.00 1010.02 1011.04 1012.04 1013.01 1013.95 1014.86 1015.72 1016.56 1017.36 1018.13 1018.87 1019.59 1020.28 1020.94 1021.58 1022.19 1022.79
1030.50 1029.06 1027.52 1025.87 1024.13 1022.33 1020.49 1018.65 1016.82 1015.06 1013.37 1011.78 1010.32 1009.00 1007.83 1006.84 1006.05 1005.46 1005.08 1004.93 1004.99 1005.27 1005.75 1006.40 1007.19 1008.10 1009.08 1010.10 1011.14 1012.17 1013.18 1014.15 1015.08 1015.96 1016.81 1017.62 1018.39 1019.14 1019.85 1020.54 1021.20 1021.82 1022.41
1031.35 1029.97 1028.50 1026.94 1025.30 1023.59 1021.85 1020.08 1018.33 1016.62 1014.97 1013.40 1011.92 1010.55 1009.30 1008.18 1007.22 1006.42 1005.81 1005.40 1005.20 1005.23 1005.48 1005.93 1006.58 1007.37 1008.29 1009.29 1010.34 1011.40 1012.46 1013.48 1014.46 1015.39 1016.27 1017.11 1017.92 1018.69 1019.42 1020.12 1020.78 1021.41 1021.99
1032.23 1030.94 1029.56 1028.11 1026.57 1024.98 1023.34 1021.67 1020.00 1018.35 1016.74 1015.18 1013.68 1012.26 1010.93 1009.69 1008.58 1007.59 1006.77 1006.14 1005.70 1005.50 1005.52 1005.78 1006.25 1006.91 1007.73 1008.67 1009.68 1010.73 1011.79 1012.83 1013.83 1014.79 1015.70 1016.57 1017.40 1018.18 1018.94 1019.65 1020.32 1020.94 1021.52
1033.07 1031.88 1030.61 1029.27 1027.86 1026.38 1024.85 1023.28 1021.69 1020.10 1018.53 1016.98 1015.48 1014.02 1012.63 1011.30 1010.07 1008.95 1007.97 1007.15 1006.52 1006.11 1005.93 1005.99 1006.28 1006.78 1007.45 1008.27 1009.19 1010.17 1011.18 1012.19 1013.18 1014.14 1015.06 1015.94 1016.79 1017.60 1018.38 1019.11 1019.80 1020.44 1021.03
1033.80 1032.72 1031.57 1030.35 1029.05 1027.69 1026.26 1024.79 1023.28 1021.75 1020.22 1018.70 1017.21 1015.74 1014.32 1012.95 1011.66 1010.46 1009.37 1008.43 1007.66 1007.08 1006.72 1006.60 1006.69 1007.00 1007.49 1008.13 1008.89 1009.74 1010.65 1011.57 1012.51 1013.44 1014.35 1015.24 1016.11 1016.95 1017.76 1018.54 1019.26 1019.94 1020.56
1034.35 1033.39 1032.36 1031.26 1030.09 1028.84 1027.52 1026.14 1024.71 1023.24 1021.76 1020.28 1018.82 1017.37 1015.96 1014.60 1013.30 1012.08 1010.95 1009.95 1009.09 1008.40 1007.89 1007.58 1007.48 1007.57 1007.84 1008.26 1008.82 1009.48 1010.23 1011.02 1011.86 1012.73 1013.60 1014.49 1015.38 1016.25 1017.11 1017.94 1018.73 1019.46 1020.14
1034.70 1033.86 1032.96 1031.99 1030.94 1029.81 1028.60 1027.31 1025.95 1024.55 1023.13 1021.71 1020.29 1018.90 1017.55 1016.24 1014.99 1013.80 1012.69 1011.68 1010.78 1010.01 1009.39 1008.92 1008.63 1008.49 1008.52 1008.70 1009.01 1009.45 1009.99 1010.62 1011.32 1012.10 1012.92 1013.78 1014.68 1015.59 1016.49 1017.38 1018.23 1019.03 1019.78
1034.87 1034.15 1033.39 1032.55 1031.62 1030.61 1029.50 1028.30 1027.03 1025.71 1024.36 1023.01 1021.67 1020.35 1019.08 1017.86 1016.70 1015.59 1014.55 1013.57 1012.68 1011.87 1011.16 1010.57 1010.09 1009.75 1009.53 1009.46 1009.51 1009.70 1010.02 1010.46 1011.01 1011.66 1012.41 1013.23 1014.11 1015.03 1015.97 1016.90 1017.80 1018.67 1019.47
1034.89 1034.31 1033.68 1032.98 1032.18 1031.28 1030.28 1029.18 1028.00 1026.76 1025.50 1024.22 1022.97 1021.76 1020.59 1019.49 1018.43 1017.43 1016.48 1015.58 1014.72 1013.91 1013.14 1012.45 1011.83 1011.30 1010.87 1010.55 1010.36 1010.31 1010.40 1010.64 1011.02 1011.54 1012.19 1012.94 1013.78 1014.68 1015.61 1016.56 1017.48 1018.36 1019.20
1034.85 1034.42 1033.92 1033.35 1032.67 1031.89 1031.00 1030.00 1028.91 1027.76 1026.58 1025.41 1024.25 1023.15 1022.10 1021.11 1020.19 1019.30 1018.46 1017.64 1016.84 1016.04 1015.26 1014.50 1013.77 1013.10 1012.49 1011.98 1011.58 1011.32 1011.21 1011.26 1011.47 1011.85 1012.37 1013.02 1013.77 1014.60 1015.49 1016.38 1017.27 1018.13 1018.95
1034.83 1034.53 1034.16 1033.71 1033.15 1032.48 1031.68 1030.78 1029.79 1028.73 1027.65 1026.58 1025.53 1024.54 1023.61 1022.74 1021.93 1021.17 1020.43 1019.70 1018.96 1018.21 1017.43 1016.64 1015.85 1015.09 1014.36 1013.71 1013.16 1012.73 1012.46 1012.35 1012.40 1012.63 1013.00 1013.52 1014.15 1014.86 1015.63 1016.42 1017.22 1017.99 1018.73
Thickness
5493 5498 5503 5510 5516 5521 5526 5532 5539 5544 5549 5553 5557 5560 5562 5565 5568 5570 5573 5574 5576 5579 5580 5581 5583 5585 5587 5589 5590 5592 5593 5593 5594 5595 5595 5596 5597 5599 5601 5602 5602 5602 5602
5484 5488 5494 5499 5505 5510 5516 5522 5529 5533 5537 5542 5545 5548 5551 5554 5557 5559 5562 5564 5566 5568 5570 5572 5573 5575 5577 5579 5580 5582 5584 5584 5585 5587 5588 5589 5590 5591 5592 5593 5594 5594 5594
5473 5479 5484 5489 5494 5499 5505 5511 5517 5522 5526 5530 5533 5536 5539 5542 5546 5548 5551 5553 5556 5558 5559 5561 5562 5564 5567 5569 5570 5572 5574 5576 5576 5577 5580 5582 5585 5584 5584 5585 5586 5586 5587
5461 5467 5472 5478 5483 5488 5493 5499 5505 5510 5515 5519 5523 5527 5530 5533 5536 5538 5539 5542 5545 5547 5548 5550 5552 5554 5556 5558 5560 5562 5564 5566 5568 5568 5569 5572 5575 5575 5577 5577 5578 5578 5579
5450 5455 5460 5465 5470 5475 5480 5488 5494 5498 5503 5507 5512 5516 5519 5521 5524 5526 5529 5532 5534 5536 5538 5539 5541 5543 5546 5548 5549 5551 5554 5556 5558 5559 5560 5560 5562 5566 5568 5571 5570 5570 5571
5439 5444 5449 5453 5458 5463 5468 5476 5482 5487 5491 5495 5500 5504 5507 5510 5512 5515 5518 5521 5523 5525 5527 5529 5530 5532 5534 5536 5539 5541 5543 5546 5548 5549 5551 5552 5554 5556 5558 5561 5562 5563 5563
5429 5434 5438 5443 5447 5452 5458 5464 5470 5475 5480 5484 5488 5491 5495 5498 5501 5504 5506 5509 5511 5513 5516 5517 5519 5521 5523 5525 5528 5530 5532 5535 5537 5539 5541 5542 5544 5546 5548 5550 5552 5552 5553
5421 5424 5428 5432 5437 5442 5447 5451 5457 5462 5468 5472 5476 5479 5483 5487 5490 5493 5495 5498 5499 5501 5504 5506 5508 5510 5512 5514 5517 5520 5522 5524 5526 5528 5530 5532 5533 5535 5537 5539 5541 5543 5545
5413 5416 5419 5423 5426 5431 5435 5440 5445 5449 5454 5459 5464 5468 5472 5476 5479 5481 5484 5486 5488 5490 5493 5494 5497 5499 5501 5503 5506 5509 5511 5513 5515 5517 5519 5522 5523 5525 5526 5528 5530 5534 5537
5406 5408 5410 5412 5416 5420 5424 5429 5432 5436 5442 5446 5451 5456 5461 5464 5468 5470 5472 5474 5477 5479 5481 5483 5486 5488 5490 5492 5495 5498 5500 5502 5504 5506 5508 5511 5513 5514 5516 5518 5520 5523 5527
5398 5399 5401 5403 5406 5410 5414 5417 5421 5427 5431 5435 5440 5445 5449 5453 5456 5458 5461 5463 5465 5467 5470 5472 5474 5477 5479 5480 5483 5486 5488 5491 5493 5494 5496 5499 5501 5503 5506 5508 5509 5511 5514
5390 5391 5393 5396 5398 5401 5405 5408 5412 5417 5421 5425 5429 5434 5439 5442 5444 5446 5449 5450 5452 5455 5457 5460 5463 5465 5467 5469 5471 5474 5477 5479 5481 5483 5485 5487 5489 5492 5495 5497 5499 5501 5504
5383 5384 5386 5387 5390 5392 5395 5398 5402 5406 5410 5413 5418 5424 5428 5430 5432 5435 5437 5438 5440 5443 5445 5448 5451 5453 5455 5457 5459 5463 5465 5468 5470 5472 5474 5477 5478 5481 5483 5485 5488 5491 5492
5376 5376 5377 5378 5380 5382 5384 5387 5392 5395 5399 5402 5407 5412 5415 5418 5421 5423 5424 5426 5428 5431 5434 5436 5438 5441 5444 5446 5448 5452 5454 5457 5459 5460 5462 5465 5467 5470 5472 5474 5477 5479 5481
5368 5368 5369 5369 5370 5371 5374 5377 5380 5384 5387 5392 5396 5399 5403 5406 5408 5410 5412 5414 5416 5419 5421 5424 5426 5429 5432 5435 5438 5441 5443 5445 5447 5449 5451 5454 5455 5457 5460 5462 5465 5468 5470
5357 5358 5359 5360 5361 5362 5363 5366 5369 5372 5376 5380 5383 5387 5390 5393 5395 5397 5400 5401 5404 5406 5409 5412 5415 5417 5420 5424 5426 5428 5430 5433 5436 5438 5440 5442 5444 5446 5448 5450 5453 5455 5458
5346 5347 5348 5349 5350 5351 5352 5354 5357 5360 5364 5367 5371 5374 5378 5381 5383 5385 5387 5389 5391 5394 5397 5400 5402 5405 5408 5411 5414 5416 5418 5422 5425 5427 5429 5431 5433 5435 5436 5438 5440 5442 5444
5336 5337 5338 5339 5339 5340 5341 5343 5345 5349 5351 5355 5358 5361 5364 5367 5370 5372 5374 5376 5378 5381 5384 5388 5391 5393 5397 5400 5402 5404 5407 5410 5414 5416 5419 5421 5423 5424 5425 5427 5429 5431 5433
5326 5326 5326 5327 5329 5330 5331 5332 5334 5337 5340 5343 5346 5349 5352 5355 5357 5359 5361 5363 5365 5368 5372 5375 5379 5382 5385 5388 5390 5392 5395 5399 5403 5406 5408 5410 5412 5414 5414 5416 5419 5421 5422
5316 5316 5316 5317 5319 5320 5320 5321 5323 5326 5329 5332 5334 5337 5340 5342 5345 5346 5349 5351 5353 5357 5360 5363 5366 5370 5374 5376 5378 5380 5385 5389 5392 5395 5397 5399 5401 5401 5403 5404 5407 5409 5411
5307 5306 5307 5308 5309 5309 5310 5311 5313 5315 5318 5320 5323 5326 5329 5331 5333 5335 5337 5340 5342 5345 5348 5351 5355 5358 5362 5365 5368 5370 5373 5376 5380 5384 5386 5388 5389 5390 5391 5393 5396 5398 5398
5298 5298 5298 5299 5299 5299 5300 5302 5303 5306 5307 5310 5313 5316 5318 5320 5322 5324 5326 5329 5332 5335 5337 5341 5344 5347 5350 5353 5356 5358 5361 5365 5368 5372 5375 5377 5378 5379 5380 5382 5384 5384 5385
5291 5291 5291 5291 5292 5291 5291 5293 5295 5296 5297 5299 5302 5305 5308 5310 5312 5314 5316 5318 5321 5324 5327 5331 5334 5337 5339 5342 5345 5347 5350 5353 5356 5360 5363 5365 5366 5367 5368 5370 5371 5371 5372
5284 5283 5283 5284 5284 5284 5284 5284 5286 5287 5289 5291 5294 5296 5299 5301 5303 5304 5306 5308 5311 5314 5317 5320 5324 5326 5329 5332 5335 5337 5339 5342 5345 5348 5351 5353 5354 5355 5356 5357 5358 5359 5361
5278 5277 5277 5276 5276 5276 5277 5277 5278 5279 5281 5283 5285 5287 5289 5291 5293 5295 5296 5299 5301 5304 5307 5310 5313 5316 5320 5322 5324 5327 5330 5332 5335 5337 5339 5341 5342 5343 5344 5345 5346 5346 5347
5271 5270 5270 5270 5269 5269 5270 5271 5271 5272 5274 5276 5277 5279 5280 5282 5284 5286 5288 5289 5291 5294 5296 5300 5303 5306 5309 5311 5314 5317 5320 5322 5324 5326 5328 5330 5331 5332 5332 5333 5333 5334 5335